Time,TemperatureF,DewpointF,PressureIn,WindDirection,WindDirectionDegrees,WindSpeedMPH,WindSpeedGustMPH,Humidity,HourlyPrecipIn,Conditions,Clouds,dailyrainin,SoftwareType,DateUTC
2013-01-20 00:01:00,43.6,31.5,29.98,SW,222,18.0,22.0,62,0.00,,---,0.00,VWS V14.01,2013-01-20 05:01:00,
2013-01-20 00:03:00,43.8,31.2,29.98,SW,233,14.0,18.0,61,0.00,,---,0.00,VWS V14.01,2013-01-20 05:03:00,
2013-01-20 00:09:00,43.5,31.8,29.98,WSW,240,18.0,18.0,63,0.00,,---,0.00,VWS V14.01,2013-01-20 05:09:00,
2013-01-20 00:14:00,43.6,31.5,29.98,SW,229,18.0,18.0,62,0.00,,---,0.00,VWS V14.01,2013-01-20 05:14:00,
2013-01-20 00:19:00,43.6,31.0,29.97,SW,232,20.0,20.0,61,0.00,,---,0.00,VWS V14.01,2013-01-20 05:19:00,
2013-01-20 00:24:00,43.6,31.5,29.97,SW,226,13.0,16.0,62,0.00,,---,0.00,VWS V14.01,2013-01-20 05:24:00,
2013-01-20 00:29:00,43.3,32.0,29.97,SW,227,14.0,18.0,64,0.00,,---,0.00,VWS V14.01,2013-01-20 05:29:00,
2013-01-20 00:34:00,43.2,32.2,29.97,WSW,239,16.0,16.0,65,0.00,,---,0.00,VWS V14.01,2013-01-20 05:34:00,
2013-01-20 00:39:00,43.1,32.2,29.97,SW,229,17.0,17.0,65,0.00,,---,0.00,VWS V14.01,2013-01-20 05:39:00,
2013-01-20 00:44:00,43.1,32.2,29.97,SW,226,18.0,18.0,65,0.00,,---,0.00,VWS V14.01,2013-01-20 05:44:00,
2013-01-20 00:49:00,43.1,32.2,29.95,SW,223,19.0,19.0,65,0.00,,---,0.00,VWS V14.01,2013-01-20 05:49:00,
2013-01-20 00:54:00,42.9,32.3,29.95,SW,233,17.0,17.0,66,0.00,,---,0.00,VWS V14.01,2013-01-20 05:54:00,
2013-01-20 00:59:00,43.1,31.8,29.95,SW,224,17.0,20.0,64,0.00,,---,0.00,VWS V14.01,2013-01-20 05:59:00,
2013-01-20 01:04:00,43.1,31.8,29.94,SW,230,18.0,21.0,64,0.00,,---,0.00,VWS V14.01,2013-01-20 06:04:00,
2013-01-20 01:09:00,42.9,32.0,29.94,SW,223,19.0,20.0,65,0.00,,---,0.00,VWS V14.01,2013-01-20 06:09:00,
2013-01-20 01:14:00,42.9,32.7,29.94,SW,223,18.0,20.0,67,0.00,,---,0.00,VWS V14.01,2013-01-20 06:14:00,
2013-01-20 01:19:00,42.9,32.3,29.94,SW,230,18.0,18.0,66,0.00,,---,0.00,VWS V14.01,2013-01-20 06:19:00,
2013-01-20 01:24:00,42.9,32.3,29.94,SW,233,17.0,19.0,66,0.00,,---,0.00,VWS V14.01,2013-01-20 06:24:00,
2013-01-20 01:29:00,42.9,32.3,29.94,SW,230,18.0,19.0,66,0.00,,---,0.00,VWS V14.01,2013-01-20 06:29:00,
2013-01-20 01:34:00,43.1,32.2,29.93,SW,232,18.0,20.0,65,0.00,,---,0.00,VWS V14.01,2013-01-20 06:34:00,
2013-01-20 01:39:00,43.1,32.2,29.93,SW,222,18.0,19.0,65,0.00,,---,0.00,VWS V14.01,2013-01-20 06:39:00,
2013-01-20 01:44:00,42.9,32.3,29.93,SW,230,18.0,18.0,66,0.00,,---,0.00,VWS V14.01,2013-01-20 06:44:00,
2013-01-20 01:49:00,43.1,32.2,29.93,SW,233,20.0,20.0,65,0.00,,---,0.00,VWS V14.01,2013-01-20 06:49:00,
2013-01-20 01:54:00,43.1,32.2,29.93,SW,222,20.0,21.0,65,0.00,,---,0.00,VWS V14.01,2013-01-20 06:54:00,
2013-01-20 01:59:00,43.1,32.2,29.93,SW,226,20.0,20.0,65,0.00,,---,0.00,VWS V14.01,2013-01-20 06:59:00,
2013-01-20 02:04:00,43.1,31.8,29.93,SW,229,20.0,24.0,64,0.00,,---,0.00,VWS V14.01,2013-01-20 07:04:00,
2013-01-20 02:09:00,43.1,31.4,29.93,SW,227,22.0,26.0,63,0.00,,---,0.00,VWS V14.01,2013-01-20 07:09:00,
2013-01-20 02:14:00,43.1,32.2,29.93,SW,224,24.0,24.0,65,0.00,,---,0.00,VWS V14.01,2013-01-20 07:14:00,
2013-01-20 02:19:00,43.1,32.5,29.92,SW,223,24.0,25.0,66,0.00,,---,0.00,VWS V14.01,2013-01-20 07:19:00,
2013-01-20 02:24:00,43.2,31.9,29.92,SW,229,21.0,24.0,64,0.00,,---,0.00,VWS V14.01,2013-01-20 07:24:00,
2013-01-20 02:29:00,43.1,31.8,29.92,SW,227,20.0,25.0,64,0.00,,---,0.00,VWS V14.01,2013-01-20 07:29:00,
2013-01-20 02:34:00,43.2,31.1,29.92,SW,230,19.0,26.0,62,0.00,,---,0.00,VWS V14.01,2013-01-20 07:34:00,
2013-01-20 02:39:00,43.2,31.9,29.92,SW,224,24.0,24.0,64,0.00,,---,0.00,VWS V14.01,2013-01-20 07:39:00,
2013-01-20 02:44:00,43.2,31.9,29.92,SW,224,24.0,24.0,64,0.00,,---,0.00,VWS V14.01,2013-01-20 07:44:00,
2013-01-20 02:49:00,43.1,32.2,29.91,SW,227,19.0,19.0,65,0.00,,---,0.00,VWS V14.01,2013-01-20 07:49:00,
2013-01-20 02:54:00,43.2,31.9,29.91,SW,227,17.0,21.0,64,0.00,,---,0.00,VWS V14.01,2013-01-20 07:54:00,
2013-01-20 02:59:00,43.3,31.6,29.91,WSW,237,21.0,24.0,63,0.00,,---,0.00,VWS V14.01,2013-01-20 07:59:00,
2013-01-20 03:04:00,43.5,31.8,29.91,SW,230,18.0,20.0,63,0.00,,---,0.00,VWS V14.01,2013-01-20 08:04:00,
2013-01-20 03:09:00,43.5,31.4,29.91,SW,226,18.0,21.0,62,0.00,,---,0.00,VWS V14.01,2013-01-20 08:09:00,
2013-01-20 03:14:00,43.6,31.5,29.91,SW,230,18.0,21.0,62,0.00,,---,0.00,VWS V14.01,2013-01-20 08:14:00,
2013-01-20 03:19:00,43.9,31.3,29.89,SW,226,20.0,20.0,61,0.00,,---,0.00,VWS V14.01,2013-01-20 08:19:00,
2013-01-20 03:24:00,44.1,31.1,29.89,SW,230,21.0,26.0,60,0.00,,---,0.00,VWS V14.01,2013-01-20 08:24:00,
2013-01-20 03:29:00,44.1,30.7,29.89,SW,217,13.0,21.0,59,0.00,,---,0.00,VWS V14.01,2013-01-20 08:29:00,
2013-01-20 03:34:00,44.3,30.0,29.89,SW,230,22.0,22.0,57,0.00,,---,0.00,VWS V14.01,2013-01-20 08:34:00,
2013-01-20 03:39:00,44.3,31.3,29.89,SW,226,21.0,21.0,60,0.00,,---,0.00,VWS V14.01,2013-01-20 08:39:00,
2013-01-20 03:44:00,44.5,30.7,29.89,SW,227,19.0,26.0,58,0.00,,---,0.00,VWS V14.01,2013-01-20 08:44:00,
2013-01-20 03:49:00,44.6,31.2,29.89,SW,217,16.0,19.0,59,0.00,,---,0.00,VWS V14.01,2013-01-20 08:49:00,
2013-01-20 03:54:00,44.8,30.9,29.89,SW,223,19.0,19.0,58,0.00,,---,0.00,VWS V14.01,2013-01-20 08:54:00,
2013-01-20 03:59:00,44.9,30.6,29.89,SW,230,17.0,24.0,57,0.00,,---,0.00,VWS V14.01,2013-01-20 08:59:00,
2013-01-20 04:04:00,44.6,31.6,29.87,SW,233,11.0,22.0,60,0.00,,---,0.00,VWS V14.01,2013-01-20 09:04:00,
2013-01-20 04:09:00,44.9,31.0,29.87,SW,232,19.0,26.0,58,0.00,,---,0.00,VWS V14.01,2013-01-20 09:09:00,
2013-01-20 04:14:00,44.8,31.4,29.87,WSW,240,17.0,20.0,59,0.00,,---,0.00,VWS V14.01,2013-01-20 09:14:00,
2013-01-20 04:19:00,44.5,31.9,29.87,SW,227,16.0,18.0,61,0.00,,---,0.00,VWS V14.01,2013-01-20 09:19:00,
2013-01-20 04:24:00,44.2,32.0,29.87,SW,230,17.0,18.0,62,0.00,,---,0.00,VWS V14.01,2013-01-20 09:24:00,
2013-01-20 04:29:00,44.2,31.2,29.87,SW,227,16.0,18.0,60,0.00,,---,0.00,VWS V14.01,2013-01-20 09:29:00,
2013-01-20 04:34:00,44.2,31.2,29.86,SW,230,18.0,19.0,60,0.00,,---,0.00,VWS V14.01,2013-01-20 09:34:00,
2013-01-20 04:39:00,44.1,31.5,29.86,WSW,250,14.0,16.0,61,0.00,,---,0.00,VWS V14.01,2013-01-20 09:39:00,
2013-01-20 04:44:00,44.3,31.3,29.86,SW,234,10.0,16.0,60,0.00,,---,0.00,VWS V14.01,2013-01-20 09:44:00,
2013-01-20 04:49:00,44.5,31.1,29.86,WSW,244,14.0,19.0,59,0.00,,---,0.00,VWS V14.01,2013-01-20 09:49:00,
2013-01-20 04:54:00,44.6,30.8,29.86,WSW,241,13.0,16.0,58,0.00,,---,0.00,VWS V14.01,2013-01-20 09:54:00,
2013-01-20 04:59:00,44.5,30.7,29.86,WSW,240,12.0,16.0,58,0.00,,---,0.00,VWS V14.01,2013-01-20 09:59:00,
2013-01-20 05:04:00,44.6,31.6,29.85,WSW,243,17.0,19.0,60,0.00,,---,0.00,VWS V14.01,2013-01-20 10:04:00,
2013-01-20 05:09:00,44.5,31.9,29.85,SW,229,13.0,17.0,61,0.00,,---,0.00,VWS V14.01,2013-01-20 10:09:00,
2013-01-20 05:14:00,44.3,31.7,29.85,SW,234,17.0,20.0,61,0.00,,---,0.00,VWS V14.01,2013-01-20 10:14:00,
2013-01-20 05:19:00,44.5,31.1,29.84,SW,230,18.0,20.0,59,0.00,,---,0.00,VWS V14.01,2013-01-20 10:19:00,
2013-01-20 05:24:00,44.8,30.9,29.84,WSW,239,15.0,20.0,58,0.00,,---,0.00,VWS V14.01,2013-01-20 10:24:00,
2013-01-20 05:29:00,44.5,31.9,29.84,SW,229,12.0,12.0,61,0.00,,---,0.00,VWS V14.01,2013-01-20 10:29:00,
2013-01-20 05:34:00,44.6,31.6,29.84,WSW,243,8.0,12.0,60,0.00,,---,0.00,VWS V14.01,2013-01-20 10:34:00,
2013-01-20 05:39:00,44.3,31.7,29.84,SW,236,8.0,16.0,61,0.00,,---,0.00,VWS V14.01,2013-01-20 10:39:00,
2013-01-20 05:44:00,44.5,31.5,29.84,SW,222,7.0,14.0,60,0.00,,---,0.00,VWS V14.01,2013-01-20 10:44:00,
2013-01-20 05:49:00,44.2,32.4,29.84,WSW,250,13.0,13.0,63,0.00,,---,0.00,VWS V14.01,2013-01-20 10:49:00,
2013-01-20 05:54:00,44.3,31.3,29.84,WSW,240,10.0,13.0,60,0.00,,---,0.00,VWS V14.01,2013-01-20 10:54:00,
2013-01-20 05:59:00,44.5,31.5,29.84,WSW,256,14.0,14.0,60,0.00,,---,0.00,VWS V14.01,2013-01-20 10:59:00,
2013-01-20 06:04:00,44.5,31.1,29.84,SW,229,12.0,19.0,59,0.00,,---,0.00,VWS V14.01,2013-01-20 11:04:00,
2013-01-20 06:10:00,44.5,30.7,29.84,WSW,243,13.0,13.0,58,0.00,,---,0.00,VWS V14.01,2013-01-20 11:10:00,
2013-01-20 06:15:00,44.3,31.7,29.84,SW,227,13.0,17.0,61,0.00,,---,0.00,VWS V14.01,2013-01-20 11:15:00,
2013-01-20 06:20:00,44.2,30.8,29.84,WSW,237,15.0,15.0,59,0.00,,---,0.00,VWS V14.01,2013-01-20 11:20:00,
2013-01-20 06:25:00,44.3,31.3,29.84,WSW,239,12.0,21.0,60,0.00,,---,0.00,VWS V14.01,2013-01-20 11:25:00,
2013-01-20 06:30:00,44.3,31.7,29.83,WSW,240,18.0,18.0,61,0.00,,---,0.00,VWS V14.01,2013-01-20 11:30:00,
2013-01-20 06:35:00,44.2,30.8,29.83,SW,227,18.0,21.0,59,0.00,,---,0.00,VWS V14.01,2013-01-20 11:35:00,
2013-01-20 06:40:00,43.9,31.7,29.83,SW,229,14.0,19.0,62,0.00,,---,0.00,VWS V14.01,2013-01-20 11:40:00,
2013-01-20 06:45:00,44.1,31.9,29.82,SW,234,20.0,21.0,62,0.00,,---,0.00,VWS V14.01,2013-01-20 11:45:00,
2013-01-20 06:50:00,44.1,31.5,29.82,SW,229,11.0,16.0,61,0.00,,---,0.00,VWS V14.01,2013-01-20 11:50:00,
2013-01-20 06:55:00,43.9,31.7,29.82,WSW,239,13.0,19.0,62,0.00,,---,0.00,VWS V14.01,2013-01-20 11:55:00,
2013-01-20 07:00:00,43.9,31.3,29.83,SW,234,11.0,13.0,61,0.00,,---,0.00,VWS V14.01,2013-01-20 12:00:00,
2013-01-20 07:05:00,43.8,32.4,29.83,WSW,257,12.0,12.0,64,0.00,,---,0.00,VWS V14.01,2013-01-20 12:05:00,
2013-01-20 07:10:00,43.8,32.4,29.83,WSW,243,7.0,11.0,64,0.00,,---,0.00,VWS V14.01,2013-01-20 12:10:00,
2013-01-20 07:15:00,43.6,31.9,29.84,WSW,243,10.0,18.0,63,0.00,,---,0.00,VWS V14.01,2013-01-20 12:15:00,
2013-01-20 07:20:00,43.6,32.2,29.84,WSW,237,10.0,11.0,64,0.00,,---,0.00,VWS V14.01,2013-01-20 12:20:00,
2013-01-20 07:25:00,43.6,31.5,29.84,SW,234,11.0,14.0,62,0.00,,---,0.00,VWS V14.01,2013-01-20 12:25:00,
2013-01-20 07:30:00,43.6,31.9,29.83,SW,233,13.0,17.0,63,0.00,,---,0.00,VWS V14.01,2013-01-20 12:30:00,
2013-01-20 07:35:00,43.9,31.3,29.83,WSW,248,14.0,17.0,61,0.00,,---,0.00,VWS V14.01,2013-01-20 12:35:00,
2013-01-20 07:40:00,43.8,32.0,29.83,SW,232,17.0,25.0,63,0.00,,---,0.00,VWS V14.01,2013-01-20 12:40:00,
2013-01-20 07:45:00,43.9,31.7,29.83,SW,234,17.0,19.0,62,0.00,,---,0.00,VWS V14.01,2013-01-20 12:45:00,
2013-01-20 07:50:00,44.1,31.5,29.83,SW,236,17.0,19.0,61,0.00,,---,0.00,VWS V14.01,2013-01-20 12:50:00,
2013-01-20 07:55:00,43.9,32.1,29.83,SW,234,11.0,17.0,63,0.00,,---,0.00,VWS V14.01,2013-01-20 12:55:00,
2013-01-20 08:00:00,43.9,32.5,29.83,SW,236,7.0,12.0,64,0.00,,---,0.00,VWS V14.01,2013-01-20 13:00:00,
2013-01-20 08:05:00,43.9,32.5,29.83,SW,233,16.0,18.0,64,0.00,,---,0.00,VWS V14.01,2013-01-20 13:05:00,
2013-01-20 08:10:00,44.1,31.9,29.83,WSW,243,8.0,13.0,62,0.00,,---,0.00,VWS V14.01,2013-01-20 13:10:00,
2013-01-20 08:15:00,44.1,32.3,29.83,SW,236,12.0,13.0,63,0.00,,---,0.00,VWS V14.01,2013-01-20 13:15:00,
2013-01-20 08:20:00,44.2,32.4,29.83,SW,233,12.0,14.0,63,0.00,,---,0.00,VWS V14.01,2013-01-20 13:20:00,
2013-01-20 08:25:00,44.2,32.4,29.83,WSW,243,12.0,19.0,63,0.00,,---,0.00,VWS V14.01,2013-01-20 13:25:00,
2013-01-20 08:30:00,44.3,32.5,29.83,SW,233,13.0,15.0,63,0.00,,---,0.00,VWS V14.01,2013-01-20 13:30:00,
2013-01-20 08:35:00,44.3,32.5,29.83,WSW,246,14.0,14.0,63,0.00,,---,0.00,VWS V14.01,2013-01-20 13:35:00,
2013-01-20 08:40:00,44.5,32.7,29.83,WSW,253,9.0,15.0,63,0.00,,---,0.00,VWS V14.01,2013-01-20 13:40:00,
2013-01-20 08:45:00,44.6,32.4,29.83,WSW,237,8.0,12.0,62,0.00,,---,0.00,VWS V14.01,2013-01-20 13:45:00,
2013-01-20 08:50:00,44.6,32.8,29.83,SW,234,10.0,12.0,63,0.00,,---,0.00,VWS V14.01,2013-01-20 13:50:00,
2013-01-20 08:55:00,44.8,32.6,29.83,WSW,237,7.0,13.0,62,0.00,,---,0.00,VWS V14.01,2013-01-20 13:55:00,
2013-01-20 09:00:00,44.9,33.1,29.83,West,261,9.0,11.0,63,0.00,,---,0.00,VWS V14.01,2013-01-20 14:00:00,
2013-01-20 09:05:00,44.9,33.5,29.83,WSW,244,10.0,12.0,64,0.00,,---,0.00,VWS V14.01,2013-01-20 14:05:00,
2013-01-20 09:10:00,44.9,33.5,29.83,WSW,244,9.0,11.0,64,0.00,,---,0.00,VWS V14.01,2013-01-20 14:10:00,
2013-01-20 09:15:00,45.4,32.8,29.83,WSW,239,7.0,13.0,61,0.00,,---,0.00,VWS V14.01,2013-01-20 14:15:00,
2013-01-20 09:20:00,45.5,33.2,29.83,WSW,240,13.0,13.0,62,0.00,,---,0.00,VWS V14.01,2013-01-20 14:20:00,
2013-01-20 09:25:00,45.7,33.4,29.83,SW,234,9.0,9.0,62,0.00,,---,0.00,VWS V14.01,2013-01-20 14:25:00,
2013-01-20 09:30:00,46.0,32.5,29.83,SW,229,9.0,10.0,59,0.00,,---,0.00,VWS V14.01,2013-01-20 14:30:00,
2013-01-20 09:35:00,46.2,32.7,29.83,SW,234,10.0,12.0,59,0.00,,---,0.00,VWS V14.01,2013-01-20 14:35:00,
2013-01-20 09:40:00,46.4,33.3,29.83,WSW,244,8.0,13.0,60,0.00,,---,0.00,VWS V14.01,2013-01-20 14:40:00,
2013-01-20 09:45:00,46.8,33.2,29.83,WSW,247,6.0,11.0,59,0.00,,---,0.00,VWS V14.01,2013-01-20 14:45:00,
2013-01-20 09:50:00,47.0,33.4,29.83,WSW,248,6.0,9.0,59,0.00,,---,0.00,VWS V14.01,2013-01-20 14:50:00,
2013-01-20 09:55:00,47.0,33.8,29.83,WSW,243,7.0,9.0,60,0.00,,---,0.00,VWS V14.01,2013-01-20 14:55:00,
2013-01-20 10:00:00,46.8,34.1,29.83,WSW,244,6.0,10.0,61,0.00,,---,0.00,VWS V14.01,2013-01-20 15:00:00,
2013-01-20 10:05:00,47.0,34.3,29.83,WSW,243,7.0,8.0,61,0.00,,---,0.00,VWS V14.01,2013-01-20 15:05:00,
2013-01-20 10:10:00,47.1,34.4,29.83,WSW,244,7.0,10.0,61,0.00,,---,0.00,VWS V14.01,2013-01-20 15:10:00,
2013-01-20 10:15:00,47.4,33.8,29.83,WSW,247,9.0,12.0,59,0.00,,---,0.00,VWS V14.01,2013-01-20 15:15:00,
2013-01-20 10:20:00,47.7,33.2,29.83,WSW,243,9.0,13.0,57,0.00,,---,0.00,VWS V14.01,2013-01-20 15:20:00,
2013-01-20 10:25:00,48.0,34.4,29.83,WSW,246,12.0,12.0,59,0.00,,---,0.00,VWS V14.01,2013-01-20 15:25:00,
2013-01-20 10:30:00,48.2,34.6,29.83,WSW,246,8.0,10.0,59,0.00,,---,0.00,VWS V14.01,2013-01-20 15:30:00,
2013-01-20 10:35:00,48.8,33.4,29.83,WSW,244,8.0,12.0,55,0.00,,---,0.00,VWS V14.01,2013-01-20 15:35:00,
2013-01-20 10:40:00,48.6,34.9,29.83,WSW,244,6.0,7.0,59,0.00,,---,0.00,VWS V14.01,2013-01-20 15:40:00,
2013-01-20 10:45:00,49.1,34.1,29.82,WSW,239,9.0,11.0,56,0.00,,---,0.00,VWS V14.01,2013-01-20 15:45:00,
2013-01-20 10:50:00,49.4,33.9,29.82,SW,232,11.0,14.0,55,0.00,,---,0.00,VWS V14.01,2013-01-20 15:50:00,
2013-01-20 10:55:00,49.5,34.5,29.82,WSW,241,8.0,16.0,56,0.00,,---,0.00,VWS V14.01,2013-01-20 15:55:00,
2013-01-20 11:00:00,49.6,35.5,29.82,WSW,241,7.0,7.0,58,0.00,,---,0.00,VWS V14.01,2013-01-20 16:00:00,
2013-01-20 11:05:00,49.8,33.8,29.82,WSW,246,7.0,11.0,54,0.00,,---,0.00,VWS V14.01,2013-01-20 16:05:00,
2013-01-20 11:10:00,50.4,33.9,29.82,WSW,244,6.0,10.0,53,0.00,,---,0.00,VWS V14.01,2013-01-20 16:10:00,
2013-01-20 11:15:00,50.1,35.0,29.81,WSW,256,9.0,9.0,56,0.00,,---,0.00,VWS V14.01,2013-01-20 16:15:00,
2013-01-20 11:20:00,49.9,35.7,29.81,WSW,251,7.0,8.0,58,0.00,,---,0.00,VWS V14.01,2013-01-20 16:20:00,
2013-01-20 11:25:00,50.5,35.4,29.81,WSW,244,7.0,12.0,56,0.00,,---,0.00,VWS V14.01,2013-01-20 16:25:00,
2013-01-20 11:30:00,50.8,34.3,29.80,WSW,247,9.0,12.0,53,0.00,,---,0.00,VWS V14.01,2013-01-20 16:30:00,
2013-01-20 11:35:00,51.4,34.4,29.80,WSW,246,6.0,10.0,52,0.00,,---,0.00,VWS V14.01,2013-01-20 16:35:00,
2013-01-20 11:40:00,51.7,34.2,29.80,WSW,251,7.0,9.0,51,0.00,,---,0.00,VWS V14.01,2013-01-20 16:40:00,
2013-01-20 11:45:00,51.7,34.7,29.79,SW,224,7.0,8.0,52,0.00,,---,0.00,VWS V14.01,2013-01-20 16:45:00,
2013-01-20 11:50:00,52.0,35.4,29.79,WSW,244,6.0,7.0,53,0.00,,---,0.00,VWS V14.01,2013-01-20 16:50:00,
2013-01-20 11:55:00,51.9,34.4,29.79,SW,233,8.0,8.0,51,0.00,,---,0.00,VWS V14.01,2013-01-20 16:55:00,
2013-01-20 12:00:00,52.8,33.7,29.78,WSW,248,7.0,11.0,48,0.00,,---,0.00,VWS V14.01,2013-01-20 17:00:00,
2013-01-20 12:05:00,52.6,34.0,29.78,WSW,243,13.0,14.0,49,0.00,,---,0.00,VWS V14.01,2013-01-20 17:05:00,
2013-01-20 12:10:00,52.5,34.9,29.78,WSW,241,8.0,10.0,51,0.00,,---,0.00,VWS V14.01,2013-01-20 17:10:00,
2013-01-20 12:15:00,52.5,34.4,29.77,WSW,241,9.0,13.0,50,0.00,,---,0.00,VWS V14.01,2013-01-20 17:15:00,
2013-01-20 12:20:00,52.3,34.7,29.77,WSW,244,6.0,12.0,51,0.00,,---,0.00,VWS V14.01,2013-01-20 17:20:00,
2013-01-20 12:25:00,52.3,36.2,29.77,WSW,250,6.0,6.0,54,0.00,,---,0.00,VWS V14.01,2013-01-20 17:25:00,
2013-01-20 12:30:00,52.2,36.5,29.76,WSW,243,8.0,8.0,55,0.00,,---,0.00,VWS V14.01,2013-01-20 17:30:00,
2013-01-20 12:35:00,52.5,35.4,29.76,WSW,248,6.0,11.0,52,0.00,,---,0.00,VWS V14.01,2013-01-20 17:35:00,
2013-01-20 12:40:00,52.6,35.0,29.76,WSW,246,6.0,8.0,51,0.00,,---,0.00,VWS V14.01,2013-01-20 17:40:00,
2013-01-20 12:45:00,53.2,35.1,29.76,SW,234,10.0,10.0,50,0.00,,---,0.00,VWS V14.01,2013-01-20 17:45:00,
2013-01-20 12:50:00,53.1,35.5,29.76,WSW,247,6.0,6.0,51,0.00,,---,0.00,VWS V14.01,2013-01-20 17:50:00,
2013-01-20 12:55:00,53.5,36.3,29.76,WSW,243,7.0,7.0,52,0.00,,---,0.00,VWS V14.01,2013-01-20 17:55:00,
2013-01-20 13:00:00,53.3,36.6,29.76,WSW,243,6.0,7.0,53,0.00,,---,0.00,VWS V14.01,2013-01-20 18:00:00,
2013-01-20 13:05:00,53.2,35.6,29.76,WSW,244,6.0,10.0,51,0.00,,---,0.00,VWS V14.01,2013-01-20 18:05:00,
2013-01-20 13:10:00,53.3,36.1,29.76,WSW,247,7.0,7.0,52,0.00,,---,0.00,VWS V14.01,2013-01-20 18:10:00,
2013-01-20 13:15:00,53.5,35.8,29.76,WSW,248,6.0,8.0,51,0.00,,---,0.00,VWS V14.01,2013-01-20 18:15:00,
2013-01-20 13:20:00,53.5,35.8,29.76,WSW,240,10.0,10.0,51,0.00,,---,0.00,VWS V14.01,2013-01-20 18:20:00,
2013-01-20 13:25:00,53.9,35.7,29.76,WSW,244,6.0,7.0,50,0.00,,---,0.00,VWS V14.01,2013-01-20 18:25:00,
2013-01-20 13:30:00,53.8,36.6,29.76,WSW,244,7.0,7.0,52,0.00,,---,0.00,VWS V14.01,2013-01-20 18:30:00,
2013-01-20 13:35:00,53.6,35.9,29.76,WSW,237,7.0,7.0,51,0.00,,---,0.00,VWS V14.01,2013-01-20 18:35:00,
2013-01-20 13:40:00,54.2,33.3,29.76,WSW,241,9.0,11.0,45,0.00,,---,0.00,VWS V14.01,2013-01-20 18:40:00,
2013-01-20 13:45:00,54.1,35.4,29.76,WSW,243,9.0,10.0,49,0.00,,---,0.00,VWS V14.01,2013-01-20 18:45:00,
2013-01-20 13:50:00,53.9,35.2,29.76,WSW,243,6.0,7.0,49,0.00,,---,0.00,VWS V14.01,2013-01-20 18:50:00,
2013-01-20 13:55:00,54.1,35.9,29.76,WSW,248,7.0,7.0,50,0.00,,---,0.00,VWS V14.01,2013-01-20 18:55:00,
2013-01-20 14:00:00,54.5,36.3,29.76,WSW,246,7.0,7.0,50,0.00,,---,0.00,VWS V14.01,2013-01-20 19:00:00,
2013-01-20 14:05:00,54.1,35.9,29.76,WSW,248,8.0,8.0,50,0.00,,---,0.00,VWS V14.01,2013-01-20 19:05:00,
2013-01-20 14:10:00,54.1,35.9,29.76,WSW,246,6.0,8.0,50,0.00,,---,0.00,VWS V14.01,2013-01-20 19:10:00,
2013-01-20 14:15:00,53.8,36.1,29.77,WSW,250,5.0,7.0,51,0.00,,---,0.00,VWS V14.01,2013-01-20 19:15:00,
2013-01-20 14:20:00,54.1,36.4,29.77,WSW,250,6.0,7.0,51,0.00,,---,0.00,VWS V14.01,2013-01-20 19:20:00,
2013-01-20 14:25:00,54.1,36.4,29.77,WSW,241,7.0,7.0,51,0.00,,---,0.00,VWS V14.01,2013-01-20 19:25:00,
2013-01-20 14:30:00,53.9,37.2,29.77,WSW,250,7.0,7.0,53,0.00,,---,0.00,VWS V14.01,2013-01-20 19:30:00,
2013-01-20 14:35:00,54.5,35.2,29.77,WSW,250,6.0,9.0,48,0.00,,---,0.00,VWS V14.01,2013-01-20 19:35:00,
2013-01-20 14:40:00,54.5,35.8,29.77,SW,236,8.0,8.0,49,0.00,,---,0.00,VWS V14.01,2013-01-20 19:40:00,
2013-01-20 14:45:00,54.7,34.9,29.77,WSW,246,6.0,7.0,47,0.00,,---,0.00,VWS V14.01,2013-01-20 19:45:00,
2013-01-20 14:50:00,55.1,34.7,29.77,WSW,247,6.0,6.0,46,0.00,,---,0.00,VWS V14.01,2013-01-20 19:50:00,
2013-01-20 14:55:00,55.1,35.8,29.77,WSW,246,3.0,6.0,48,0.00,,---,0.00,VWS V14.01,2013-01-20 19:55:00,
2013-01-20 15:00:00,55.4,33.9,29.77,SW,234,7.0,9.0,44,0.00,,---,0.00,VWS V14.01,2013-01-20 20:00:00,
2013-01-20 15:05:00,56.2,31.0,29.77,West,265,5.0,7.0,38,0.00,,---,0.00,VWS V14.01,2013-01-20 20:05:00,
2013-01-20 15:10:00,56.2,32.2,29.77,WNW,295,7.0,10.0,40,0.00,,---,0.00,VWS V14.01,2013-01-20 20:10:00,
2013-01-20 15:15:00,56.0,32.7,29.78,WSW,250,6.0,9.0,41,0.00,,---,0.00,VWS V14.01,2013-01-20 20:15:00,
2013-01-20 15:20:00,55.7,34.1,29.78,West,271,5.0,5.0,44,0.00,,---,0.00,VWS V14.01,2013-01-20 20:20:00,
2013-01-20 15:25:00,55.7,32.4,29.78,WSW,256,6.0,10.0,41,0.00,,---,0.00,VWS V14.01,2013-01-20 20:25:00,
2013-01-20 15:30:00,56.2,31.6,29.78,WSW,248,5.0,6.0,39,0.00,,---,0.00,VWS V14.01,2013-01-20 20:30:00,
2013-01-20 15:35:00,56.3,32.3,29.78,WSW,250,5.0,10.0,40,0.00,,---,0.00,VWS V14.01,2013-01-20 20:35:00,
2013-01-20 15:40:00,55.4,33.9,29.78,WSW,257,7.0,9.0,44,0.00,,---,0.00,VWS V14.01,2013-01-20 20:40:00,
2013-01-20 15:45:00,55.7,32.4,29.79,WSW,248,5.0,7.0,41,0.00,,---,0.00,VWS V14.01,2013-01-20 20:45:00,
2013-01-20 15:50:00,55.7,33.0,29.79,WSW,254,5.0,6.0,42,0.00,,---,0.00,VWS V14.01,2013-01-20 20:50:00,
2013-01-20 15:55:00,55.6,33.5,29.79,WNW,282,5.0,5.0,43,0.00,,---,0.00,VWS V14.01,2013-01-20 20:55:00,
2013-01-20 16:00:00,55.9,31.3,29.79,WSW,246,6.0,10.0,39,0.00,,---,0.00,VWS V14.01,2013-01-20 21:00:00,
2013-01-20 16:05:00,55.4,33.3,29.79,WSW,258,6.0,6.0,43,0.00,,---,0.00,VWS V14.01,2013-01-20 21:05:00,
2013-01-20 16:10:00,55.3,33.2,29.79,WSW,257,7.0,9.0,43,0.00,,---,0.00,VWS V14.01,2013-01-20 21:10:00,
2013-01-20 16:15:00,54.8,35.0,29.80,WSW,246,5.0,6.0,47,0.00,,---,0.00,VWS V14.01,2013-01-20 21:15:00,
2013-01-20 16:20:00,54.7,34.9,29.80,WSW,244,5.0,5.0,47,0.00,,---,0.00,VWS V14.01,2013-01-20 21:20:00,
2013-01-20 16:25:00,54.1,34.9,29.80,WSW,247,3.0,4.0,48,0.00,,---,0.00,VWS V14.01,2013-01-20 21:25:00,
2013-01-20 16:30:00,53.8,35.1,29.81,WSW,250,4.0,4.0,49,0.00,,---,0.00,VWS V14.01,2013-01-20 21:30:00,
2013-01-20 16:36:00,53.5,34.8,29.81,WSW,243,5.0,5.0,49,0.00,,---,0.00,VWS V14.01,2013-01-20 21:36:00,
2013-01-20 16:41:00,53.3,35.2,29.81,WSW,246,3.0,4.0,50,0.00,,---,0.00,VWS V14.01,2013-01-20 21:41:00,
2013-01-20 16:46:00,52.8,36.2,29.81,WSW,241,3.0,3.0,53,0.00,,---,0.00,VWS V14.01,2013-01-20 21:46:00,
2013-01-20 16:51:00,52.3,37.1,29.81,WSW,243,1.0,1.0,56,0.00,,---,0.00,VWS V14.01,2013-01-20 21:51:00,
2013-01-20 16:56:00,51.9,36.3,29.81,West,260,3.0,3.0,55,0.00,,---,0.00,VWS V14.01,2013-01-20 21:56:00,
2013-01-20 17:01:00,51.9,36.3,29.82,West,264,1.0,1.0,55,0.00,,---,0.00,VWS V14.01,2013-01-20 22:01:00,
2013-01-20 17:06:00,51.6,35.5,29.82,West,270,0.0,0.0,54,0.00,,---,0.00,VWS V14.01,2013-01-20 22:06:00,
2013-01-20 17:11:00,51.7,33.7,29.82,NW,304,2.0,2.0,50,0.00,,---,0.00,VWS V14.01,2013-01-20 22:11:00,
2013-01-20 17:16:00,52.6,30.8,29.83,NNW,330,10.0,13.0,43,0.00,,---,0.00,VWS V14.01,2013-01-20 22:16:00,
2013-01-20 17:21:00,53.5,28.5,29.83,WNW,291,5.0,18.0,38,0.00,,---,0.00,VWS V14.01,2013-01-20 22:21:00,
2013-01-20 17:26:00,53.5,28.5,29.83,NW,305,10.0,10.0,38,0.00,,---,0.00,VWS V14.01,2013-01-20 22:26:00,
2013-01-20 17:31:00,53.5,27.2,29.84,WSW,250,2.0,8.0,36,0.00,,---,0.00,VWS V14.01,2013-01-20 22:31:00,
2013-01-20 17:36:00,53.2,28.3,29.84,WNW,284,6.0,6.0,38,0.00,,---,0.00,VWS V14.01,2013-01-20 22:36:00,
2013-01-20 17:41:00,52.9,26.7,29.84,WNW,301,3.0,3.0,36,0.00,,---,0.00,VWS V14.01,2013-01-20 22:41:00,
2013-01-20 17:46:00,52.6,27.7,29.86,NW,305,3.0,3.0,38,0.00,,---,0.00,VWS V14.01,2013-01-20 22:46:00,
2013-01-20 17:51:00,52.3,26.8,29.86,WNW,287,6.0,7.0,37,0.00,,---,0.00,VWS V14.01,2013-01-20 22:51:00,
2013-01-20 17:56:00,52.2,26.1,29.86,WNW,291,2.0,3.0,36,0.00,,---,0.00,VWS V14.01,2013-01-20 22:56:00,
2013-01-20 18:01:00,52.0,27.2,29.87,NW,316,2.0,7.0,38,0.00,,---,0.00,VWS V14.01,2013-01-20 23:01:00,
2013-01-20 18:06:00,51.7,26.9,29.87,NW,318,6.0,6.0,38,0.00,,---,0.00,VWS V14.01,2013-01-20 23:06:00,
2013-01-20 18:11:00,51.6,25.5,29.87,NW,325,2.0,8.0,36,0.00,,---,0.00,VWS V14.01,2013-01-20 23:11:00,
2013-01-20 18:16:00,51.7,23.5,29.87,NW,322,5.0,10.0,33,0.00,,---,0.00,VWS V14.01,2013-01-20 23:16:00,
2013-01-20 18:21:00,51.7,25.6,29.87,WNW,302,5.0,6.0,36,0.00,,---,0.00,VWS V14.01,2013-01-20 23:21:00,
2013-01-20 18:26:00,51.6,25.5,29.87,NW,306,8.0,10.0,36,0.00,,---,0.00,VWS V14.01,2013-01-20 23:26:00,
2013-01-20 18:31:00,51.3,24.6,29.88,WNW,291,4.0,13.0,35,0.00,,---,0.00,VWS V14.01,2013-01-20 23:31:00,
2013-01-20 18:36:00,51.4,24.0,29.88,NW,319,10.0,11.0,34,0.00,,---,0.00,VWS V14.01,2013-01-20 23:36:00,
2013-01-20 18:41:00,51.4,24.0,29.88,NNW,328,10.0,10.0,34,0.00,,---,0.00,VWS V14.01,2013-01-20 23:41:00,
2013-01-20 18:46:00,51.1,25.1,29.89,NW,312,4.0,6.0,36,0.00,,---,0.00,VWS V14.01,2013-01-20 23:46:00,
2013-01-20 18:51:00,50.7,24.7,29.89,NW,313,5.0,11.0,36,0.00,,---,0.00,VWS V14.01,2013-01-20 23:51:00,
2013-01-20 18:56:00,50.5,23.9,29.89,WNW,301,8.0,11.0,35,0.00,,---,0.00,VWS V14.01,2013-01-20 23:56:00,
2013-01-20 19:01:00,50.2,24.3,29.90,WNW,302,4.0,7.0,36,0.00,,---,0.00,VWS V14.01,2013-01-21 00:01:00,
2013-01-20 19:06:00,50.1,23.5,29.90,NW,323,3.0,3.0,35,0.00,,---,0.00,VWS V14.01,2013-01-21 00:06:00,
2013-01-20 19:12:00,49.9,24.0,29.90,NNW,336,2.0,4.0,36,0.00,,---,0.00,VWS V14.01,2013-01-21 00:12:00,
2013-01-20 19:17:00,49.6,22.4,29.91,NNW,346,2.0,5.0,34,0.00,,---,0.00,VWS V14.01,2013-01-21 00:17:00,
2013-01-20 19:22:00,49.5,22.3,29.91,NNW,330,5.0,7.0,34,0.00,,---,0.00,VWS V14.01,2013-01-21 00:22:00,
2013-01-20 19:27:00,49.4,21.5,29.91,NNW,343,12.0,12.0,33,0.00,,---,0.00,VWS V14.01,2013-01-21 00:27:00,
2013-01-20 19:32:00,49.1,21.3,29.92,North,359,6.0,6.0,33,0.00,,---,0.00,VWS V14.01,2013-01-21 00:32:00,
2013-01-20 19:37:00,48.8,21.0,29.92,NNW,330,7.0,8.0,33,0.00,,---,0.00,VWS V14.01,2013-01-21 00:37:00,
2013-01-20 19:42:00,48.5,22.1,29.92,NW,320,3.0,4.0,35,0.00,,---,0.00,VWS V14.01,2013-01-21 00:42:00,
2013-01-20 19:47:00,48.0,20.3,29.93,NNW,340,5.0,11.0,33,0.00,,---,0.00,VWS V14.01,2013-01-21 00:47:00,
2013-01-20 19:52:00,47.9,18.7,29.93,WNW,298,13.0,14.0,31,0.00,,---,0.00,VWS V14.01,2013-01-21 00:52:00,
2013-01-20 19:57:00,47.7,17.8,29.93,WNW,301,12.0,12.0,30,0.00,,---,0.00,VWS V14.01,2013-01-21 00:57:00,
2013-01-20 20:02:00,47.7,17.0,29.94,NW,313,11.0,11.0,29,0.00,,---,0.00,VWS V14.01,2013-01-21 01:02:00,
2013-01-20 20:07:00,47.6,17.7,29.94,NW,309,5.0,11.0,30,0.00,,---,0.00,VWS V14.01,2013-01-21 01:07:00,
2013-01-20 20:12:00,47.3,18.2,29.94,NNW,344,10.0,10.0,31,0.00,,---,0.00,VWS V14.01,2013-01-21 01:12:00,
2013-01-20 20:17:00,47.0,17.2,29.95,NW,313,6.0,11.0,30,0.00,,---,0.00,VWS V14.01,2013-01-21 01:17:00,
2013-01-20 20:22:00,46.7,17.7,29.95,NW,322,10.0,10.0,31,0.00,,---,0.00,VWS V14.01,2013-01-21 01:22:00,
2013-01-20 20:27:00,46.2,16.5,29.95,NW,305,9.0,13.0,30,0.00,,---,0.00,VWS V14.01,2013-01-21 01:27:00,
2013-01-20 20:32:00,46.1,16.4,29.96,NNW,339,12.0,13.0,30,0.00,,---,0.00,VWS V14.01,2013-01-21 01:32:00,
2013-01-20 20:37:00,46.0,15.5,29.96,NW,309,7.0,13.0,29,0.00,,---,0.00,VWS V14.01,2013-01-21 01:37:00,
2013-01-20 20:43:00,45.5,17.4,29.96,NW,312,9.0,13.0,32,0.00,,---,0.00,VWS V14.01,2013-01-21 01:43:00,
2013-01-20 20:48:00,45.4,15.0,29.96,WNW,289,8.0,10.0,29,0.00,,---,0.00,VWS V14.01,2013-01-21 01:48:00,
2013-01-20 20:53:00,45.2,15.6,29.96,NNW,329,8.0,9.0,30,0.00,,---,0.00,VWS V14.01,2013-01-21 01:53:00,
2013-01-20 20:58:00,44.9,15.4,29.96,NW,309,10.0,10.0,30,0.00,,---,0.00,VWS V14.01,2013-01-21 01:58:00,
2013-01-20 21:03:00,44.6,15.1,29.97,NW,311,5.0,7.0,30,0.00,,---,0.00,VWS V14.01,2013-01-21 02:03:00,
2013-01-20 21:08:00,44.5,17.2,29.97,North,359,7.0,8.0,33,0.00,,---,0.00,VWS V14.01,2013-01-21 02:08:00,
2013-01-20 21:13:00,44.2,16.2,29.97,NW,320,3.0,5.0,32,0.00,,---,0.00,VWS V14.01,2013-01-21 02:13:00,
2013-01-20 21:18:00,44.1,15.4,29.97,NW,308,3.0,5.0,31,0.00,,---,0.00,VWS V14.01,2013-01-21 02:18:00,
2013-01-20 21:23:00,43.9,15.2,29.97,North,359,6.0,6.0,31,0.00,,---,0.00,VWS V14.01,2013-01-21 02:23:00,
2013-01-20 21:28:00,43.8,15.1,29.97,North,353,3.0,4.0,31,0.00,,---,0.00,VWS V14.01,2013-01-21 02:28:00,
2013-01-20 21:33:00,43.3,14.0,29.98,North,357,3.0,8.0,30,0.00,,---,0.00,VWS V14.01,2013-01-21 02:33:00,
2013-01-20 21:38:00,42.9,17.1,29.98,NNW,346,3.0,6.0,35,0.00,,---,0.00,VWS V14.01,2013-01-21 02:38:00,
2013-01-20 21:43:00,42.5,19.3,29.98,North,359,0.0,5.0,39,0.00,,---,0.00,VWS V14.01,2013-01-21 02:43:00,
2013-01-20 21:48:00,42.2,20.8,29.99,North,3,7.0,11.0,42,0.00,,---,0.00,VWS V14.01,2013-01-21 02:48:00,
2013-01-20 21:53:00,41.8,21.5,29.99,North,357,5.0,8.0,44,0.00,,---,0.00,VWS V14.01,2013-01-21 02:53:00,
2013-01-20 21:58:00,41.5,22.3,29.99,North,0,2.0,8.0,46,0.00,,---,0.00,VWS V14.01,2013-01-21 02:58:00,
2013-01-20 22:03:00,41.2,23.0,29.99,North,0,5.0,8.0,48,0.00,,---,0.00,VWS V14.01,2013-01-21 03:03:00,
2013-01-20 22:08:00,41.1,23.9,29.99,NNE,16,6.0,6.0,50,0.00,,---,0.00,VWS V14.01,2013-01-21 03:08:00,
2013-01-20 22:13:00,40.9,22.7,29.99,North,352,13.0,13.0,48,0.00,,---,0.00,VWS V14.01,2013-01-21 03:13:00,
2013-01-20 22:18:00,40.8,22.1,30.00,North,0,5.0,10.0,47,0.00,,---,0.00,VWS V14.01,2013-01-21 03:18:00,
2013-01-20 22:23:00,40.8,23.1,30.00,NNW,336,3.0,5.0,49,0.00,,---,0.00,VWS V14.01,2013-01-21 03:23:00,
2013-01-20 22:28:00,40.5,21.4,30.00,North,8,7.0,10.0,46,0.00,,---,0.00,VWS V14.01,2013-01-21 03:28:00,
2013-01-20 22:33:00,40.3,19.6,30.00,North,0,4.0,8.0,43,0.00,,---,0.00,VWS V14.01,2013-01-21 03:33:00,
2013-01-20 22:38:00,40.3,19.6,30.00,North,0,4.0,11.0,43,0.00,,---,0.00,VWS V14.01,2013-01-21 03:38:00,
2013-01-20 22:43:00,40.2,20.0,30.00,NNW,347,10.0,11.0,44,0.00,,---,0.00,VWS V14.01,2013-01-21 03:43:00,
2013-01-20 22:48:00,40.1,20.5,30.01,North,352,2.0,11.0,45,0.00,,---,0.00,VWS V14.01,2013-01-21 03:48:00,
2013-01-20 22:53:00,39.9,19.8,30.01,North,359,6.0,11.0,44,0.00,,---,0.00,VWS V14.01,2013-01-21 03:53:00,
2013-01-20 22:58:00,39.8,20.2,30.01,NNW,330,7.0,7.0,45,0.00,,---,0.00,VWS V14.01,2013-01-21 03:58:00,
2013-01-20 23:03:00,39.6,20.0,30.00,North,1,4.0,6.0,45,0.00,,---,0.00,VWS V14.01,2013-01-21 04:03:00,
2013-01-20 23:08:00,39.5,19.9,30.00,North,3,1.0,7.0,45,0.00,,---,0.00,VWS V14.01,2013-01-21 04:08:00,
2013-01-20 23:13:00,39.3,20.3,30.00,NNW,346,6.0,6.0,46,0.00,,---,0.00,VWS V14.01,2013-01-21 04:13:00,
2013-01-20 23:18:00,39.2,20.2,30.01,NW,318,2.0,8.0,46,0.00,,---,0.00,VWS V14.01,2013-01-21 04:18:00,
2013-01-20 23:24:00,39.2,20.2,30.01,North,357,6.0,6.0,46,0.00,,---,0.00,VWS V14.01,2013-01-21 04:24:00,
2013-01-20 23:29:00,39.1,20.6,30.01,NNW,340,4.0,4.0,47,0.00,,---,0.00,VWS V14.01,2013-01-21 04:29:00,
2013-01-20 23:33:00,38.9,20.4,30.00,NNW,340,10.0,10.0,47,0.00,,---,0.00,VWS V14.01,2013-01-21 04:33:00,
2013-01-20 23:39:00,38.8,19.3,30.00,NNE,20,2.0,2.0,45,0.00,,---,0.00,VWS V14.01,2013-01-21 04:39:00,
2013-01-20 23:44:00,38.6,19.1,30.00,North,357,9.0,9.0,45,0.00,,---,0.00,VWS V14.01,2013-01-21 04:44:00,
2013-01-20 23:49:00,38.6,19.6,30.00,North,357,6.0,6.0,46,0.00,,---,0.00,VWS V14.01,2013-01-21 04:49:00,
2013-01-20 23:54:00,38.5,19.0,30.00,North,8,6.0,11.0,45,0.00,,---,0.00,VWS V14.01,2013-01-21 04:54:00,
2013-01-20 23:59:00,38.5,19.0,30.00,North,4,6.0,6.0,45,0.00,,---,0.00,VWS V14.01,2013-01-21 04:59:00,